OAL951 LGAV-HELX

Flight info

Callsign OAL951
Flight time 2h 3m
Altitude 37000
Route KEA UL607 SIT L607 NABSI P557 OBRAN L321 REXUM M872 SEMRU A727 LXR
Aircraft B738/M-SDE2E3FGHIRWXY/LB1

Departure

Time 2026-05-07 19:21
Airport Athens Eleftherios Venizelos International Airport (LGAV)

Arrival

Time 2026-05-07 21:25
Airport Luxor International Airport (HELX)
Time Latitude Longitude Altitude Speed Heading
2026-05-07 18:58 37.93792 23.95023 300 ft 0 kts 306°
2026-05-07 19:11 37.93786 23.95034 303 ft 2 kts 305°
2026-05-07 19:11 37.93778 23.95048 300 ft 2 kts 305°
2026-05-07 19:11 37.93771 23.95062 299 ft 2 kts 304°
2026-05-07 19:11 37.93763 23.95076 302 ft 2 kts 303°
2026-05-07 19:12 37.93756 23.95090 299 ft 2 kts 313°
2026-05-07 19:12 37.93746 23.95101 300 ft 2 kts 343°
2026-05-07 19:12 37.93733 23.95104 299 ft 1 kts 13°
2026-05-07 19:14 37.93735 23.95105 299 ft 3 kts 12°
2026-05-07 19:14 37.93769 23.95123 299 ft 6 kts 29°
2026-05-07 19:14 37.93801 23.95153 302 ft 6 kts 37°
2026-05-07 19:14 37.93833 23.95182 301 ft 6 kts 36°
2026-05-07 19:15 37.93858 23.95217 301 ft 6 kts 69°
2026-05-07 19:15 37.93870 23.95265 299 ft 6 kts 70°
2026-05-07 19:15 37.93883 23.95311 299 ft 6 kts 73°
2026-05-07 19:15 37.93876 23.95368 298 ft 9 kts 118°
2026-05-07 19:16 37.93852 23.95449 296 ft 11 kts 80°
2026-05-07 19:16 37.93902 23.95521 297 ft 11 kts 37°
2026-05-07 19:16 37.93965 23.95580 298 ft 12 kts 37°
2026-05-07 19:16 37.94046 23.95656 296 ft 17 kts 36°
2026-05-07 19:17 37.94153 23.95755 298 ft 21 kts 36°
2026-05-07 19:17 37.94275 23.95874 301 ft 22 kts 36°
2026-05-07 19:17 37.94396 23.95989 300 ft 21 kts 37°
2026-05-07 19:17 37.94513 23.96099 299 ft 21 kts 36°
2026-05-07 19:18 37.94627 23.96208 298 ft 20 kts 37°
2026-05-07 19:18 37.94737 23.96313 298 ft 20 kts 36°
2026-05-07 19:18 37.94844 23.96414 301 ft 19 kts 37°
2026-05-07 19:18 37.94947 23.96512 300 ft 18 kts 37°
2026-05-07 19:19 37.95047 23.96607 303 ft 18 kts 37°
2026-05-07 19:19 37.95144 23.96698 304 ft 17 kts 36°
2026-05-07 19:19 37.95237 23.96786 302 ft 16 kts 37°
2026-05-07 19:19 37.95294 23.96864 303 ft 11 kts 78°
2026-05-07 19:20 37.95267 23.96948 305 ft 10 kts 126°
2026-05-07 19:20 37.95217 23.97010 309 ft 10 kts 159°
2026-05-07 19:20 37.95153 23.96986 309 ft 10 kts 217°
2026-05-07 19:20 37.95090 23.96926 308 ft 16 kts 217°
2026-05-07 19:21 37.94869 23.96715 303 ft 74 kts 217°
2026-05-07 19:21 37.94267 23.96141 285 ft 140 kts 217°
2026-05-07 19:21 37.93357 23.95307 510 ft 171 kts 217°
2026-05-07 19:21 37.92397 23.94536 1383 ft 160 kts 205°
2026-05-07 19:22 37.91392 23.93863 1962 ft 167 kts 210°
2026-05-07 19:22 37.90356 23.93094 2331 ft 186 kts 208°
2026-05-07 19:22 37.89165 23.92286 2570 ft 199 kts 207°
2026-05-07 19:22 37.87886 23.91445 2661 ft 215 kts 207°
2026-05-07 19:23 37.86526 23.90524 2819 ft 230 kts 207°
2026-05-07 19:23 37.85082 23.89543 3350 ft 241 kts 207°
2026-05-07 19:23 37.83604 23.88538 4155 ft 242 kts 207°
2026-05-07 19:23 37.82112 23.87527 4933 ft 245 kts 207°
2026-05-07 19:24 37.80587 23.86495 5591 ft 252 kts 208°
2026-05-07 19:24 37.78946 23.85744 6378 ft 253 kts 188°
2026-05-07 19:24 37.77171 23.85750 7030 ft 260 kts 172°
2026-05-07 19:24 37.75414 23.86365 7659 ft 267 kts 165°
2026-05-07 19:25 37.73578 23.87005 8091 ft 281 kts 157°
2026-05-07 19:25 37.72074 23.88610 8662 ft 292 kts 122°
2026-05-07 19:25 37.71364 23.91025 9400 ft 296 kts 107°
2026-05-07 19:25 37.70701 23.93497 10099 ft 300 kts 113°
2026-05-07 19:26 37.69837 23.95950 10495 ft 315 kts 117°
2026-05-07 19:26 37.68823 23.98519 10653 ft 338 kts 118°
2026-05-07 19:26 37.67717 24.01205 11006 ft 351 kts 119°
2026-05-07 19:26 37.66567 24.03957 11556 ft 357 kts 119°
2026-05-07 19:27 37.65397 24.06751 12205 ft 362 kts 119°
2026-05-07 19:27 37.64220 24.09562 12971 ft 362 kts 119°
2026-05-07 19:27 37.63040 24.12380 13678 ft 366 kts 119°
2026-05-07 19:27 37.61844 24.15239 14293 ft 371 kts 119°
2026-05-07 19:28 37.60630 24.18140 14901 ft 376 kts 119°
2026-05-07 19:28 37.59403 24.21071 15534 ft 380 kts 119°
2026-05-07 19:28 37.58159 24.24039 16168 ft 385 kts 119°
2026-05-07 19:28 37.56901 24.27035 16782 ft 389 kts 119°
2026-05-07 19:29 37.55408 24.29886 17355 ft 392 kts 136°
2026-05-07 19:29 37.53267 24.31980 18003 ft 390 kts 150°
2026-05-07 19:29 37.50956 24.33791 18597 ft 394 kts 151°
2026-05-07 19:29 37.48629 24.35575 19092 ft 399 kts 152°
2026-05-07 19:30 37.46219 24.37420 19654 ft 402 kts 151°
2026-05-07 19:30 37.43855 24.39240 20206 ft 405 kts 151°
2026-05-07 19:30 37.41447 24.41107 20786 ft 407 kts 151°
2026-05-07 19:30 37.39027 24.42992 21226 ft 413 kts 151°
2026-05-07 19:31 37.36571 24.44910 21634 ft 418 kts 151°
2026-05-07 19:31 37.34092 24.46849 22119 ft 421 kts 151°
2026-05-07 19:31 37.31595 24.48802 22607 ft 424 kts 150°
2026-05-07 19:31 37.29082 24.50767 23069 ft 428 kts 150°
2026-05-07 19:32 37.26546 24.52748 23513 ft 431 kts 150°
2026-05-07 19:32 37.23986 24.54746 23911 ft 435 kts 150°
2026-05-07 19:32 37.21402 24.56761 24253 ft 439 kts 151°
2026-05-07 19:32 37.18793 24.58793 24578 ft 444 kts 151°
2026-05-07 19:33 37.16160 24.60842 24902 ft 448 kts 151°
2026-05-07 19:33 37.13499 24.62912 25222 ft 452 kts 151°
2026-05-07 19:33 37.10812 24.64999 25517 ft 457 kts 151°
2026-05-07 19:33 37.08098 24.67107 25833 ft 461 kts 151°
2026-05-07 19:34 37.05363 24.69230 26150 ft 465 kts 151°
2026-05-07 19:34 37.02599 24.71372 26466 ft 468 kts 151°
2026-05-07 19:34 36.99818 24.73527 26755 ft 472 kts 151°
2026-05-07 19:34 36.97012 24.75700 27041 ft 476 kts 151°
2026-05-07 19:35 36.94184 24.77887 27335 ft 480 kts 151°
2026-05-07 19:35 36.91336 24.80087 27629 ft 483 kts 151°
2026-05-07 19:35 36.88465 24.82312 27913 ft 487 kts 151°
2026-05-07 19:35 36.85575 24.84556 28142 ft 492 kts 151°
2026-05-07 19:36 36.82655 24.86824 28374 ft 497 kts 151°
2026-05-07 19:36 36.79708 24.89112 28695 ft 500 kts 152°
2026-05-07 19:36 36.76747 24.91409 29006 ft 503 kts 152°
2026-05-07 19:36 36.73767 24.93717 29285 ft 506 kts 152°
2026-05-07 19:37 36.70760 24.96041 29547 ft 510 kts 152°
2026-05-07 19:37 36.67737 24.98370 29816 ft 513 kts 152°
2026-05-07 19:37 36.64683 25.00708 30093 ft 516 kts 152°
2026-05-07 19:37 36.61611 25.03054 30311 ft 520 kts 152°
2026-05-07 19:38 36.58517 25.05415 30473 ft 524 kts 152°
2026-05-07 19:38 36.55402 25.07791 30695 ft 527 kts 152°
2026-05-07 19:38 36.52277 25.10176 30960 ft 528 kts 152°
2026-05-07 19:38 36.49140 25.12569 31222 ft 529 kts 152°
2026-05-07 19:39 36.46002 25.14960 31518 ft 530 kts 152°
2026-05-07 19:39 36.42905 25.17319 31841 ft 529 kts 152°
2026-05-07 19:39 36.39769 25.19705 32175 ft 528 kts 152°
2026-05-07 19:39 36.36638 25.22084 32477 ft 528 kts 152°
2026-05-07 19:40 36.33501 25.24465 32739 ft 529 kts 152°
2026-05-07 19:40 36.30363 25.26844 33007 ft 529 kts 152°
2026-05-07 19:40 36.27220 25.29224 33300 ft 529 kts 152°
2026-05-07 19:40 36.24082 25.31600 33626 ft 528 kts 152°
2026-05-07 19:41 36.20945 25.33972 33953 ft 528 kts 152°
2026-05-07 19:41 36.17809 25.36342 34163 ft 529 kts 152°
2026-05-07 19:41 36.14660 25.38718 34364 ft 530 kts 152°
2026-05-07 19:41 36.11511 25.41093 34649 ft 529 kts 152°
2026-05-07 19:42 36.08378 25.43455 34971 ft 527 kts 152°
2026-05-07 19:42 36.05251 25.45810 35259 ft 525 kts 152°
2026-05-07 19:42 36.02134 25.48156 35492 ft 525 kts 152°
2026-05-07 19:42 35.99017 25.50500 35719 ft 525 kts 152°
2026-05-07 19:43 35.95907 25.52837 35977 ft 523 kts 152°
2026-05-07 19:43 35.92800 25.55169 36250 ft 522 kts 152°
2026-05-07 19:43 35.89697 25.57497 36475 ft 521 kts 152°
2026-05-07 19:43 35.86597 25.59820 36678 ft 522 kts 151°
2026-05-07 19:44 35.83497 25.62141 36892 ft 521 kts 151°
2026-05-07 19:44 35.80403 25.64456 37158 ft 520 kts 151°
2026-05-07 19:44 35.74175 25.69106 37141 ft 524 kts 151°
2026-05-07 19:45 35.67953 25.73747 37125 ft 521 kts 151°
2026-05-07 19:45 35.61793 25.78333 37131 ft 517 kts 151°
2026-05-07 19:46 35.55648 25.82898 37138 ft 515 kts 151°
2026-05-07 19:46 35.49522 25.87440 37143 ft 514 kts 151°
2026-05-07 19:47 35.43402 25.91970 37146 ft 514 kts 151°
2026-05-07 19:47 35.37261 25.96506 37155 ft 517 kts 151°
2026-05-07 19:48 35.31081 26.01064 37150 ft 520 kts 151°
2026-05-07 19:48 35.24907 26.05611 37126 ft 523 kts 151°
2026-05-07 19:49 35.18649 26.10211 37151 ft 526 kts 151°
2026-05-07 19:49 35.12366 26.14822 37148 ft 529 kts 151°
2026-05-07 19:50 35.06091 26.19535 37142 ft 530 kts 146°
2026-05-07 19:50 35.00412 26.25266 37156 ft 529 kts 139°
2026-05-07 19:51 34.94890 26.31195 37139 ft 529 kts 139°
2026-05-07 19:51 34.89341 26.37067 37144 ft 528 kts 139°
2026-05-07 19:52 34.83762 26.42869 37148 ft 526 kts 140°
2026-05-07 19:52 34.78187 26.48628 37149 ft 525 kts 140°
2026-05-07 19:53 34.72618 26.54374 37149 ft 524 kts 140°
2026-05-07 19:53 34.67058 26.60107 37153 ft 524 kts 139°
2026-05-07 19:54 34.61498 26.65831 37155 ft 524 kts 140°
2026-05-07 19:54 34.55940 26.71543 37158 ft 524 kts 140°
2026-05-07 19:55 34.50374 26.77252 37159 ft 524 kts 140°
2026-05-07 19:55 34.44808 26.82950 37158 ft 524 kts 140°
2026-05-07 19:56 34.39230 26.88651 37175 ft 525 kts 139°
2026-05-07 19:56 34.33635 26.94359 37146 ft 526 kts 139°
2026-05-07 19:57 34.28980 26.99100 37160 ft 527 kts 139°
2026-05-07 19:57 34.23373 27.04802 37160 ft 527 kts 139°
2026-05-07 19:58 34.17747 27.10512 37159 ft 528 kts 139°
2026-05-07 19:58 34.12113 27.16221 37158 ft 529 kts 139°
2026-05-07 19:59 34.06473 27.21925 37162 ft 530 kts 139°
2026-05-07 19:59 34.00820 27.27633 37153 ft 530 kts 139°
2026-05-07 20:00 33.95161 27.33324 37159 ft 530 kts 141°
2026-05-07 20:00 33.89144 27.38453 37168 ft 530 kts 147°
2026-05-07 20:01 33.82962 27.43285 37162 ft 530 kts 147°
2026-05-07 20:01 33.76782 27.48136 37171 ft 530 kts 147°
2026-05-07 20:02 33.70677 27.53004 37155 ft 530 kts 146°
2026-05-07 20:02 33.64544 27.57925 37165 ft 530 kts 146°
2026-05-07 20:03 33.58413 27.62837 37163 ft 530 kts 146°
2026-05-07 20:03 33.52270 27.67745 37164 ft 530 kts 146°
2026-05-07 20:04 33.46128 27.72639 37137 ft 530 kts 146°
2026-05-07 20:04 33.39985 27.77526 37161 ft 530 kts 146°
2026-05-07 20:05 33.33844 27.82403 37165 ft 530 kts 146°
2026-05-07 20:05 33.27699 27.87275 37164 ft 530 kts 146°
2026-05-07 20:06 33.21545 27.92145 37164 ft 530 kts 146°
2026-05-07 20:06 33.15392 27.97007 37155 ft 531 kts 146°
2026-05-07 20:07 33.09234 28.01864 37162 ft 531 kts 146°
2026-05-07 20:07 33.03076 28.06714 37178 ft 531 kts 146°
2026-05-07 20:08 32.96907 28.11563 37163 ft 531 kts 146°
2026-05-07 20:08 32.90727 28.16412 37165 ft 532 kts 146°
2026-05-07 20:09 32.84591 28.21220 37156 ft 532 kts 146°
2026-05-07 20:10 32.75312 28.28474 37167 ft 532 kts 146°
2026-05-07 20:10 32.69122 28.33303 37166 ft 532 kts 146°
2026-05-07 20:11 32.62931 28.38125 37183 ft 533 kts 146°
2026-05-07 20:11 32.56727 28.42949 37162 ft 534 kts 146°
2026-05-07 20:12 32.50511 28.47773 37162 ft 534 kts 146°
2026-05-07 20:12 32.44295 28.52590 37165 ft 534 kts 146°
2026-05-07 20:13 32.38071 28.57406 37160 ft 534 kts 146°
2026-05-07 20:13 32.31846 28.62213 37161 ft 535 kts 146°
2026-05-07 20:14 32.25612 28.67019 37168 ft 535 kts 146°
2026-05-07 20:14 32.19379 28.71818 37158 ft 535 kts 145°
2026-05-07 20:15 32.13142 28.76611 37164 ft 535 kts 145°
2026-05-07 20:15 32.06899 28.81401 37161 ft 535 kts 146°
2026-05-07 20:16 32.00647 28.86189 37161 ft 536 kts 146°
2026-05-07 20:16 31.94400 28.90967 37156 ft 535 kts 145°
2026-05-07 20:17 31.88157 28.95733 37171 ft 535 kts 145°
2026-05-07 20:17 31.81913 29.00494 37159 ft 535 kts 145°
2026-05-07 20:18 31.75518 29.04969 37142 ft 536 kts 157°
2026-05-07 20:18 31.68390 29.07287 37145 ft 530 kts 176°
2026-05-07 20:19 31.61087 29.07515 37158 ft 524 kts 185°
2026-05-07 20:19 31.53780 29.07480 37151 ft 525 kts 185°
2026-05-07 20:20 31.46512 29.07532 37151 ft 526 kts 184°
2026-05-07 20:20 31.39189 29.07636 37149 ft 527 kts 184°
2026-05-07 20:21 31.31857 29.07741 37155 ft 527 kts 184°
2026-05-07 20:21 31.24522 29.07838 37148 ft 527 kts 184°
2026-05-07 20:22 31.17193 29.07935 37147 ft 526 kts 184°
2026-05-07 20:22 31.09873 29.08041 37144 ft 526 kts 184°
2026-05-07 20:23 31.02562 29.08148 37150 ft 525 kts 184°
2026-05-07 20:23 30.95263 29.08253 37134 ft 524 kts 184°
2026-05-07 20:24 30.87978 29.08358 37142 ft 523 kts 184°
2026-05-07 20:24 30.80705 29.08462 37142 ft 522 kts 184°
2026-05-07 20:25 30.73443 29.08565 37139 ft 522 kts 184°
2026-05-07 20:25 30.66186 29.08669 37125 ft 521 kts 184°
2026-05-07 20:26 30.58938 29.08772 37125 ft 520 kts 184°
2026-05-07 20:26 30.51738 29.09611 37118 ft 526 kts 161°
2026-05-07 20:26 30.48414 29.11350 37142 ft 525 kts 147°
2026-05-07 20:27 30.45520 29.13885 37102 ft 518 kts 130°
2026-05-07 20:27 30.40729 29.20058 37110 ft 516 kts 127°
2026-05-07 20:28 30.35752 29.26068 37138 ft 518 kts 130°
2026-05-07 20:28 30.30668 29.32006 37119 ft 519 kts 130°
2026-05-07 20:29 30.25631 29.38004 37123 ft 520 kts 129°
2026-05-07 20:29 30.20601 29.44029 37125 ft 521 kts 129°
2026-05-07 20:30 30.15556 29.50059 37125 ft 522 kts 130°
2026-05-07 20:30 30.10495 29.56087 37124 ft 523 kts 129°
2026-05-07 20:31 30.05424 29.62115 37117 ft 523 kts 130°
2026-05-07 20:31 30.00384 29.68096 37108 ft 523 kts 130°
2026-05-07 20:32 29.95311 29.74106 37114 ft 522 kts 130°
2026-05-07 20:32 29.90246 29.80099 37112 ft 522 kts 130°
2026-05-07 20:33 29.85182 29.86083 37132 ft 521 kts 129°
2026-05-07 20:33 29.80129 29.92043 37118 ft 521 kts 129°
2026-05-07 20:34 29.75071 29.98001 37108 ft 520 kts 129°
2026-05-07 20:34 29.70012 30.03951 37116 ft 520 kts 129°
2026-05-07 20:35 29.64952 30.09893 37109 ft 520 kts 129°
2026-05-07 20:35 29.59890 30.15828 37116 ft 520 kts 129°
2026-05-07 20:36 29.54828 30.21754 37105 ft 520 kts 129°
2026-05-07 20:36 29.49761 30.27677 37105 ft 520 kts 129°
2026-05-07 20:37 29.44691 30.33596 37103 ft 520 kts 129°
2026-05-07 20:37 29.39615 30.39513 37079 ft 520 kts 129°
2026-05-07 20:38 29.34588 30.45464 37096 ft 520 kts 129°
2026-05-07 20:38 29.29589 30.51446 37083 ft 520 kts 128°
2026-05-07 20:39 29.24587 30.57416 37090 ft 519 kts 129°
2026-05-07 20:39 29.19575 30.63375 37079 ft 519 kts 129°
2026-05-07 20:40 29.14564 30.69317 37083 ft 519 kts 129°
2026-05-07 20:40 29.09552 30.75252 37080 ft 519 kts 129°
2026-05-07 20:41 29.04534 30.81187 37068 ft 519 kts 129°
2026-05-07 20:41 28.99518 30.87111 37078 ft 518 kts 129°
2026-05-07 20:42 28.94540 30.92981 37081 ft 518 kts 129°
2026-05-07 20:42 28.89524 30.98887 37090 ft 518 kts 129°
2026-05-07 20:43 28.84509 31.04784 37072 ft 518 kts 129°
2026-05-07 20:43 28.79492 31.10674 37080 ft 517 kts 129°
2026-05-07 20:44 28.74479 31.16553 37081 ft 517 kts 129°
2026-05-07 20:44 28.69466 31.22426 37086 ft 517 kts 129°
2026-05-07 20:45 28.64612 31.28433 37092 ft 514 kts 127°
2026-05-07 20:45 28.60666 31.33484 37076 ft 514 kts 127°
2026-05-07 20:46 28.55904 31.39548 37078 ft 513 kts 127°
2026-05-07 20:46 28.51130 31.45565 37065 ft 512 kts 127°
2026-05-07 20:47 28.46347 31.51562 37071 ft 511 kts 127°
2026-05-07 20:47 28.41582 31.57555 37024 ft 511 kts 128°
2026-05-07 20:48 28.36814 31.63505 37048 ft 508 kts 129°
2026-05-07 20:48 28.32070 31.69422 37058 ft 506 kts 128°
2026-05-07 20:49 28.27349 31.75312 37056 ft 504 kts 128°
2026-05-07 20:49 28.22637 31.81186 37080 ft 503 kts 130°
2026-05-07 20:50 28.17931 31.87040 37056 ft 502 kts 130°
2026-05-07 20:50 28.13266 31.92838 37063 ft 501 kts 130°
2026-05-07 20:51 28.08569 31.98671 37054 ft 500 kts 130°
2026-05-07 20:51 28.03442 32.03994 37057 ft 503 kts 146°
2026-05-07 20:52 27.97145 32.07359 37048 ft 502 kts 165°
2026-05-07 20:52 27.90418 32.09435 37049 ft 501 kts 167°
2026-05-07 20:53 27.83699 32.11476 37042 ft 500 kts 167°
2026-05-07 20:53 27.77008 32.13578 37041 ft 498 kts 166°
2026-05-07 20:54 27.70350 32.15701 36982 ft 498 kts 166°
2026-05-07 20:54 27.66996 32.16770 36427 ft 502 kts 166°
2026-05-07 20:54 27.63643 32.17838 35895 ft 499 kts 166°
2026-05-07 20:54 27.60300 32.18901 35272 ft 500 kts 166°
2026-05-07 20:55 27.56942 32.19968 34633 ft 502 kts 166°
2026-05-07 20:55 27.53573 32.21037 33941 ft 505 kts 165°
2026-05-07 20:55 27.50185 32.22111 33189 ft 506 kts 165°
2026-05-07 20:55 27.46792 32.23186 32469 ft 507 kts 165°
2026-05-07 20:56 27.43395 32.24262 31746 ft 507 kts 165°
2026-05-07 20:56 27.39994 32.25339 30996 ft 508 kts 165°
2026-05-07 20:56 27.36598 32.26414 30444 ft 505 kts 165°
2026-05-07 20:56 27.33232 32.27479 29890 ft 500 kts 165°
2026-05-07 20:57 27.29897 32.28532 29282 ft 495 kts 165°
2026-05-07 20:57 27.26593 32.29576 28711 ft 490 kts 165°
2026-05-07 20:57 27.23332 32.30606 28168 ft 484 kts 165°
2026-05-07 20:57 27.20104 32.31626 27632 ft 479 kts 165°
2026-05-07 20:58 27.16911 32.32634 27096 ft 474 kts 165°
2026-05-07 20:58 27.13754 32.33631 26574 ft 469 kts 165°
2026-05-07 20:58 27.10663 32.34606 26062 ft 465 kts 165°
2026-05-07 20:58 27.07566 32.35582 25557 ft 461 kts 165°
2026-05-07 20:59 27.04491 32.36551 25043 ft 457 kts 165°
2026-05-07 20:59 27.01446 32.37510 24548 ft 453 kts 165°
2026-05-07 20:59 26.98421 32.38462 24011 ft 450 kts 165°
2026-05-07 20:59 26.95417 32.39407 23476 ft 447 kts 165°
2026-05-07 21:00 26.92425 32.40347 22883 ft 444 kts 165°
2026-05-07 21:00 26.89469 32.41276 22351 ft 439 kts 165°
2026-05-07 21:00 26.86547 32.42194 21841 ft 434 kts 165°
2026-05-07 21:00 26.83654 32.43102 21331 ft 429 kts 165°
2026-05-07 21:01 26.80792 32.44000 20833 ft 425 kts 165°
2026-05-07 21:01 26.77960 32.44888 20361 ft 421 kts 165°
2026-05-07 21:01 26.75157 32.45767 19869 ft 416 kts 165°
2026-05-07 21:01 26.72379 32.46637 19395 ft 413 kts 165°
2026-05-07 21:02 26.69626 32.47499 18918 ft 409 kts 165°
2026-05-07 21:02 26.66895 32.48353 18438 ft 406 kts 165°
2026-05-07 21:02 26.64182 32.49202 17902 ft 403 kts 165°
2026-05-07 21:02 26.61491 32.50043 17384 ft 399 kts 165°
2026-05-07 21:03 26.58830 32.50874 16893 ft 395 kts 165°
2026-05-07 21:03 26.56193 32.51698 16405 ft 391 kts 165°
2026-05-07 21:03 26.53583 32.52513 15942 ft 388 kts 165°
2026-05-07 21:03 26.50995 32.53320 15471 ft 385 kts 165°
2026-05-07 21:04 26.48428 32.54121 15018 ft 382 kts 165°
2026-05-07 21:04 26.45876 32.54916 14561 ft 379 kts 165°
2026-05-07 21:04 26.43348 32.55704 14100 ft 377 kts 165°
2026-05-07 21:04 26.40827 32.56489 13601 ft 375 kts 165°
2026-05-07 21:05 26.38321 32.57269 13113 ft 372 kts 165°
2026-05-07 21:05 26.35833 32.58043 12638 ft 370 kts 165°
2026-05-07 21:05 26.33365 32.58811 12182 ft 367 kts 165°
2026-05-07 21:05 26.30917 32.59572 11739 ft 364 kts 165°
2026-05-07 21:06 26.28485 32.60329 11281 ft 361 kts 165°
2026-05-07 21:06 26.26075 32.61078 10847 ft 358 kts 165°
2026-05-07 21:06 26.23711 32.61812 10695 ft 347 kts 165°
2026-05-07 21:06 26.21420 32.62523 10527 ft 337 kts 165°
2026-05-07 21:07 26.19194 32.63213 10383 ft 327 kts 165°
2026-05-07 21:07 26.17060 32.63876 10238 ft 318 kts 165°
2026-05-07 21:07 26.14957 32.64527 10106 ft 310 kts 165°
2026-05-07 21:07 26.12909 32.65161 9974 ft 302 kts 165°
2026-05-07 21:08 26.10898 32.65784 9714 ft 299 kts 165°
2026-05-07 21:08 26.08905 32.66401 9422 ft 297 kts 165°
2026-05-07 21:08 26.06922 32.67015 9121 ft 295 kts 165°
2026-05-07 21:08 26.04952 32.67624 8830 ft 293 kts 165°
2026-05-07 21:09 26.02999 32.68229 8543 ft 291 kts 165°
2026-05-07 21:09 26.01054 32.68830 8261 ft 289 kts 165°
2026-05-07 21:09 25.99119 32.69429 7983 ft 288 kts 165°
2026-05-07 21:09 25.97194 32.70024 7711 ft 286 kts 165°
2026-05-07 21:10 25.95279 32.70616 7417 ft 284 kts 165°
2026-05-07 21:10 25.93378 32.71203 7154 ft 283 kts 165°
2026-05-07 21:10 25.91484 32.71787 6880 ft 283 kts 165°
2026-05-07 21:10 25.89590 32.72371 6614 ft 282 kts 165°
2026-05-07 21:11 25.87700 32.72954 6327 ft 282 kts 165°
2026-05-07 21:11 25.85814 32.73535 6036 ft 281 kts 165°
2026-05-07 21:11 25.82054 32.74696 5476 ft 280 kts 164°
2026-05-07 21:12 25.80177 32.75274 5207 ft 278 kts 164°
2026-05-07 21:12 25.78319 32.75847 4968 ft 277 kts 164°
2026-05-07 21:12 25.76437 32.76278 4665 ft 277 kts 180°
2026-05-07 21:12 25.74605 32.75760 4498 ft 270 kts 210°
2026-05-07 21:13 25.73177 32.74461 4398 ft 266 kts 232°
2026-05-07 21:13 25.72034 32.72842 4324 ft 268 kts 235°
2026-05-07 21:13 25.70917 32.71180 4226 ft 270 kts 236°
2026-05-07 21:13 25.69795 32.69502 4131 ft 272 kts 236°
2026-05-07 21:14 25.68664 32.67819 4052 ft 273 kts 236°
2026-05-07 21:14 25.67525 32.66135 3949 ft 273 kts 235°
2026-05-07 21:14 25.66385 32.64458 3855 ft 271 kts 235°
2026-05-07 21:14 25.65266 32.62815 3774 ft 264 kts 236°
2026-05-07 21:15 25.64171 32.61210 3684 ft 258 kts 235°
2026-05-07 21:15 25.63096 32.59638 3583 ft 254 kts 235°
2026-05-07 21:15 25.62033 32.58079 3522 ft 255 kts 236°
2026-05-07 21:15 25.60961 32.56507 3440 ft 257 kts 235°
2026-05-07 21:16 25.59891 32.54951 3332 ft 250 kts 235°
2026-05-07 21:16 25.58848 32.53435 3213 ft 244 kts 236°
2026-05-07 21:16 25.57839 32.51968 3193 ft 238 kts 236°
2026-05-07 21:16 25.56753 32.50613 3210 ft 233 kts 223°
2026-05-07 21:17 25.55440 32.49624 3200 ft 223 kts 207°
2026-05-07 21:17 25.54025 32.49056 3211 ft 212 kts 193°
2026-05-07 21:17 25.52579 32.48868 3203 ft 209 kts 180°
2026-05-07 21:17 25.51145 32.49023 3195 ft 207 kts 167°
2026-05-07 21:18 25.49795 32.49500 3202 ft 206 kts 153°
2026-05-07 21:18 25.48547 32.50305 3209 ft 205 kts 140°
2026-05-07 21:18 25.47522 32.51362 3202 ft 204 kts 126°
2026-05-07 21:18 25.46718 32.52667 3211 ft 203 kts 113°
2026-05-07 21:19 25.46196 32.54133 3221 ft 208 kts 101°
2026-05-07 21:19 25.45971 32.55673 3195 ft 199 kts 88°
2026-05-07 21:19 25.46061 32.57155 3180 ft 188 kts 74°
2026-05-07 21:19 25.46420 32.58523 3203 ft 185 kts 63°
2026-05-07 21:20 25.47016 32.59786 3219 ft 187 kts 53°
2026-05-07 21:20 25.47835 32.60921 3201 ft 189 kts 43°
2026-05-07 21:20 25.48781 32.61886 3185 ft 181 kts 33°
2026-05-07 21:20 25.49862 32.62542 3157 ft 178 kts 23°
2026-05-07 21:21 25.50993 32.63126 3012 ft 181 kts 21°
2026-05-07 21:21 25.52119 32.63671 2848 ft 171 kts 20°
2026-05-07 21:21 25.53205 32.64181 2708 ft 171 kts 20°
2026-05-07 21:21 25.54315 32.64699 2610 ft 174 kts 19°
2026-05-07 21:22 25.55404 32.65207 2433 ft 166 kts 19°
2026-05-07 21:22 25.56448 32.65693 2237 ft 159 kts 19°
2026-05-07 21:22 25.57439 32.66154 2028 ft 150 kts 19°
2026-05-07 21:22 25.58409 32.66604 1838 ft 153 kts 18°
2026-05-07 21:23 25.59404 32.67067 1637 ft 157 kts 18°
2026-05-07 21:23 25.60419 32.67538 1428 ft 159 kts 19°
2026-05-07 21:23 25.61437 32.68014 1231 ft 157 kts 20°
2026-05-07 21:23 25.62427 32.68473 1047 ft 154 kts 20°
2026-05-07 21:24 25.63414 32.68932 855 ft 157 kts 21°
2026-05-07 21:24 25.64457 32.69411 671 ft 167 kts 22°
2026-05-07 21:24 25.65510 32.69907 420 ft 163 kts 22°
2026-05-07 21:24 25.66518 32.70378 295 ft 149 kts 22°
2026-05-07 21:25 25.67341 32.70754 286 ft 106 kts 22°
2026-05-07 21:25 25.67743 32.70931 285 ft 15 kts 353°
2026-05-07 21:25 25.67794 32.70862 284 ft 9 kts 293°
2026-05-07 21:25 25.67818 32.70802 284 ft 9 kts 293°
2026-05-07 21:26 25.67841 32.70743 283 ft 8 kts 293°
2026-05-07 21:26 25.67845 32.70683 283 ft 8 kts 240°
2026-05-07 21:26 25.67799 32.70649 284 ft 8 kts 205°
2026-05-07 21:26 25.67751 32.70624 284 ft 8 kts 205°
2026-05-07 21:27 25.67710 32.70588 285 ft 8 kts 225°
2026-05-07 21:27 25.67665 32.70531 285 ft 10 kts 231°
2026-05-07 21:27 25.67620 32.70458 285 ft 12 kts 237°
2026-05-07 21:27 25.67554 32.70404 286 ft 12 kts 207°
2026-05-07 21:28 25.67481 32.70362 288 ft 12 kts 207°
2026-05-07 21:28 25.67442 32.70332 289 ft 4 kts 243°
2026-05-07 21:28 25.67439 32.70301 287 ft 4 kts 278°
2026-05-07 21:28 25.67447 32.70272 287 ft 4 kts 290°
2026-05-07 21:29 25.67458 32.70245 291 ft 4 kts 293°
2026-05-07 21:29 25.67468 32.70218 287 ft 0 kts 294°